Theta_e
294 295 295 296 296 296 296 297 296 296 296 297 296 296 295 296 295 293 295 294 295 296 296 298 300 301 304 303 304 303 303 303 306 310 311 311 314 317 318 321 323 324 324 326 327 328 329 330 331 332 334 335 337 338 340 341 341 342 345 345 346 346 346 347 347 349 349 350 350 350 351 351 351 351 351 352 352 352 352 351 351 351 350 350 349 348 349
292 294 295 296 295 295 295 295 296 297 297 296 297 297 298 297 297 297 298 295 297 298 299 298 300 301 302 303 306 307 308 305 307 308 308 310 312 314 316 319 322 324 325 326 327 328 329 330 331 331 333 335 336 337 338 340 341 343 344 345 346 346 346 347 348 349 350 351 351 351 350 350 351 351 352 352 352 352 351 351 351 351 351 350 349 348 348
290 293 296 295 295 294 293 295 296 297 297 297 298 298 298 298 297 297 296 296 296 299 300 302 303 303 301 304 305 304 305 305 306 307 308 310 311 312 315 318 321 324 325 326 327 328 329 330 331 332 333 334 336 337 338 339 341 342 344 344 345 346 346 348 349 350 350 350 351 351 351 351 351 351 352 352 352 352 352 351 351 351 351 349 349 349 348
287 292 293 294 294 294 294 294 296 296 295 294 296 296 297 296 295 296 296 295 295 298 300 301 302 302 302 302 303 303 304 306 308 309 310 310 311 312 313 316 319 322 324 325 326 327 328 330 331 332 333 334 335 336 338 339 340 342 343 344 345 346 347 348 349 349 349 350 351 351 351 351 351 352 352 352 352 352 351 351 351 351 350 350 350 349 349
284 291 292 292 292 293 292 294 297 298 297 297 297 297 300 301 300 297 295 296 300 301 303 301 303 302 302 302 301 303 303 306 309 311 312 312 313 313 315 316 320 320 323 325 327 327 328 330 331 333 334 334 335 337 338 340 341 342 342 343 345 346 347 348 348 349 350 350 350 351 351 352 352 352 352 352 351 351 351 352 351 350 350 350 350 350 349
285 290 291 292 289 284 288 298 300 300 298 298 296 297 297 298 300 300 302 302 303 301 301 301 302 303 303 305 305 305 306 306 306 308 312 313 314 314 315 317 319 322 324 326 327 328 329 331 332 334 336 335 336 338 339 341 341 342 343 343 345 345 347 347 348 349 350 350 350 351 352 352 353 352 352 351 352 352 352 352 351 350 350 350 350 350 349
284 288 290 287 283 286 298 299 304 308 307 301 299 300 299 299 299 300 299 299 300 301 302 303 305 306 306 308 308 306 304 306 306 307 308 309 313 316 317 317 319 322 324 326 327 328 328 330 332 334 335 337 338 339 340 340 342 342 343 344 344 345 346 347 349 349 349 350 350 351 352 352 352 352 352 352 352 352 352 352 351 350 350 350 350 350 350
288 286 285 281 283 293 297 298 306 311 306 307 302 298 299 300 299 299 299 300 301 301 301 302 304 304 305 312 315 314 315 308 309 308 309 312 314 317 319 319 319 322 323 325 326 327 331 331 332 334 335 337 337 338 340 341 341 343 343 344 344 345 346 347 348 349 350 350 350 351 351 352 352 352 352 352 352 353 353 353 353 352 352 351 350 350 350
282 284 284 286 293 292 295 301 304 305 302 303 302 296 299 300 303 299 299 300 300 301 300 301 304 310 313 313 316 316 317 319 314 311 312 312 313 315 319 321 320 323 326 326 327 332 334 331 332 333 335 337 338 339 340 340 342 342 343 344 344 346 346 348 349 350 350 350 350 351 351 351 351 352 352 352 353 354 352 352 352 351 351 351 351 351 350
289 283 282 283 284 283 289 302 308 310 311 310 308 303 299 304 306 305 301 300 301 301 303 304 305 310 309 306 310 314 318 320 324 329 326 328 326 319 317 320 324 325 325 326 329 329 330 331 332 334 336 338 339 339 340 341 342 342 343 344 345 346 347 348 350 351 351 351 350 351 351 351 351 352 353 353 353 353 352 351 351 351 352 352 352 352 350
288 285 281 281 282 287 293 301 307 309 311 311 310 301 296 301 307 311 305 301 301 303 305 302 308 308 304 302 308 314 317 324 328 329 331 331 332 335 335 326 322 325 329 328 329 331 330 329 332 335 336 338 338 339 340 341 342 342 343 344 346 346 348 349 350 352 352 352 351 351 352 352 352 352 353 353 354 354 353 353 352 353 352 351 351 351 351
288 286 284 282 288 290 299 306 308 310 312 312 303 292 291 302 309 311 312 308 303 304 305 307 309 307 301 303 309 315 323 327 333 332 332 332 334 336 338 338 335 330 334 333 330 329 329 332 334 336 336 338 339 339 339 341 341 341 343 345 347 348 349 350 351 352 353 353 353 352 352 353 353 353 354 354 354 353 353 353 352 352 351 351 350 350 351
288 290 285 287 290 298 306 307 310 312 313 303 294 290 293 307 309 312 312 314 314 309 307 310 308 307 307 310 319 333 333 332 331 332 333 334 335 336 338 337 336 332 331 330 330 332 335 337 336 336 336 337 338 339 340 340 340 342 344 346 347 348 349 350 351 352 353 353 353 353 354 354 354 354 354 353 353 353 352 353 353 352 351 350 350 350 350
286 287 285 286 291 297 307 311 311 313 307 294 292 302 310 310 311 312 313 316 317 313 309 310 309 316 325 333 332 331 331 330 329 330 332 334 336 337 338 339 336 335 335 335 336 337 337 338 338 337 336 336 337 338 339 339 341 344 345 345 346 347 348 349 350 352 353 354 354 354 355 354 354 353 354 355 354 353 353 352 351 351 351 349 349 349 350
292 292 288 287 283 295 311 310 309 311 302 301 309 310 312 313 312 315 319 322 321 319 318 323 326 330 330 330 329 329 329 329 328 329 331 332 333 333 334 334 335 336 335 335 335 335 337 338 337 338 339 336 337 338 338 340 345 349 347 346 347 347 347 348 349 350 352 352 353 354 354 354 353 353 354 354 354 353 353 352 351 350 350 350 349 348 348
288 290 287 287 295 303 311 308 301 308 311 313 313 312 309 313 313 313 313 322 325 327 326 328 328 328 327 327 327 327 327 328 329 329 331 333 334 334 334 335 335 335 334 335 336 336 337 339 339 338 339 339 337 336 338 344 346 348 347 346 346 346 346 347 348 349 351 352 353 354 354 354 353 353 353 353 353 352 352 351 349 349 349 349 348 347 346
297 294 297 303 308 311 313 312 311 313 315 316 315 314 312 312 313 315 314 318 324 327 328 328 327 326 328 327 328 327 327 327 328 329 330 331 332 333 332 333 335 335 334 334 335 335 336 338 339 339 339 339 339 338 339 341 343 345 344 345 345 345 345 346 346 348 350 351 352 353 354 354 352 352 352 352 351 352 351 351 350 349 348 348 347 346 346
305 307 310 311 312 311 312 315 316 314 314 315 315 314 312 314 315 316 315 316 323 326 326 326 326 327 327 327 328 328 328 328 329 330 330 330 331 331 331 331 333 334 335 335 334 333 333 335 337 338 339 339 338 338 341 342 345 346 344 344 344 345 345 345 346 347 348 350 351 352 353 354 353 353 352 351 350 351 350 350 350 349 348 347 346 346 345
297 293 309 309 309 312 312 312 314 315 315 315 316 314 314 314 315 316 318 317 322 327 328 327 327 327 328 327 327 328 328 328 328 328 328 329 329 328 328 330 331 330 331 331 331 332 331 332 334 335 336 338 338 339 340 341 345 348 346 344 343 344 345 345 346 346 347 348 349 351 352 353 353 353 353 352 351 349 349 350 350 349 348 346 346 345 344
294 297 307 310 312 312 313 312 312 313 314 316 317 317 316 315 316 317 318 319 321 325 326 327 327 327 328 328 327 328 328 328 328 327 327 327 328 329 329 330 330 330 329 328 329 329 329 329 331 333 334 335 336 337 338 340 341 345 348 346 344 344 344 344 344 345 345 348 348 348 350 351 351 352 352 352 351 350 350 350 349 349 348 346 345 345 344
298 304 309 311 311 311 312 314 314 315 316 316 316 316 316 315 314 315 317 319 319 321 321 324 326 326 328 330 330 330 330 330 330 331 331 331 330 331 331 331 331 330 330 330 329 329 329 329 329 331 332 334 335 336 336 338 339 341 343 345 346 346 346 347 343 343 344 344 345 346 347 350 351 352 352 351 351 351 353 354 352 351 349 349 347 348 345
290 295 304 310 301 300 308 313 314 315 317 315 314 314 314 314 313 314 315 318 320 321 321 321 324 325 326 329 330 329 329 329 329 331 332 333 334 334 335 335 335 335 334 331 330 329 329 329 329 330 332 334 335 337 337 337 337 339 340 339 338 338 339 342 342 344 344 345 344 343 344 346 348 349 336 323 339 352 351 338 332 330 330 347 349 347 341
294 304 309 311 308 308 310 312 314 315 317 317 313 312 312 313 313 313 313 315 318 319 320 320 321 324 326 327 329 328 328 328 328 329 330 331 332 333 334 334 334 334 334 335 332 331 329 329 330 332 333 334 335 337 337 336 335 335 336 336 334 334 333 333 332 333 334 335 335 335 337 339 340 340 340 338 312 309 309 316 323 318 314 318 319 326 335
302 304 305 312 309 306 310 314 314 314 316 316 313 314 315 313 313 314 314 314 316 316 317 319 321 321 324 326 326 325 326 327 328 328 329 330 330 332 332 332 332 332 332 332 332 331 332 331 331 332 334 335 336 338 337 337 336 335 334 333 331 331 332 332 332 331 331 330 331 332 332 333 334 333 332 331 334 317 307 306 308 309 307 308 313 316 319
300 307 311 313 312 312 313 314 315 316 317 315 312 313 314 315 315 316 314 314 316 317 317 318 320 321 323 325 325 325 326 327 328 329 329 329 329 328 329 330 330 331 331 332 331 331 332 332 332 333 333 335 336 337 336 336 335 334 333 332 331 330 330 332 333 334 332 331 331 332 332 331 330 330 329 328 326 326 321 304 303 304 307 309 310 312 313
309 310 311 314 314 313 313 313 313 313 314 314 313 313 315 318 318 317 315 314 315 317 317 318 319 321 323 324 325 326 326 326 328 328 326 326 326 327 327 327 329 330 330 331 333 333 333 333 333 333 333 335 337 336 335 334 334 333 333 333 332 331 331 330 330 330 330 330 331 330 329 329 329 328 327 327 326 321 316 318 319 311 307 306 309 310 309
311 312 311 311 310 310 312 310 308 313 313 314 313 313 315 315 318 317 318 316 317 318 318 318 318 319 321 323 324 325 325 325 325 325 325 325 326 326 326 327 328 329 329 329 330 333 333 333 332 332 331 333 337 337 335 335 334 334 334 335 336 337 335 332 329 329 328 329 328 328 328 328 329 328 327 327 327 322 319 322 323 323 323 316 307 306 312
309 311 312 307 306 307 310 312 313 313 313 313 313 313 315 316 316 316 316 316 315 316 316 316 316 315 315 317 321 321 322 322 322 323 323 323 324 325 326 327 327 327 327 327 327 329 330 329 330 330 331 333 336 338 337 336 335 334 333 333 332 331 331 331 330 329 328 328 328 328 328 328 330 331 331 328 326 325 322 322 324 325 319 316 312 306 301
311 313 314 313 311 312 312 312 312 311 311 313 314 313 314 314 314 314 314 315 315 315 314 315 315 314 313 314 317 318 319 320 320 320 321 323 324 324 325 326 326 326 326 326 326 326 327 328 328 329 330 332 335 337 337 336 334 333 332 332 331 331 331 331 330 330 329 328 327 328 327 328 329 329 328 326 325 324 324 325 324 320 312 306 306 306 305
311 312 313 312 312 311 310 309 309 310 310 311 312 313 313 313 312 312 313 314 314 314 314 314 313 312 312 312 312 314 314 315 316 318 320 321 322 324 325 326 326 325 325 324 324 325 325 325 326 326 328 332 334 335 336 334 333 332 330 329 329 329 330 329 329 328 328 327 327 327 328 328 328 327 326 324 324 325 325 324 324 322 319 313 311 308 305
310 311 312 311 310 309 308 308 309 310 311 311 312 312 312 312 312 311 312 312 314 313 314 313 312 311 311 311 312 313 315 315 316 317 318 318 320 322 324 325 324 322 323 323 324 324 325 325 325 326 328 331 333 334 335 333 332 331 330 329 328 322 321 323 325 329 328 329 328 328 327 327 327 326 325 324 324 324 324 324 322 320 318 315 311 309 308
309 309 309 309 309 308 309 309 309 309 309 311 310 310 310 311 310 311 313 313 313 313 313 313 312 312 312 313 314 315 316 316 317 318 318 319 319 320 321 322 324 326 325 326 326 326 325 325 325 326 328 330 331 332 333 332 332 331 330 331 329 329 325 323 327 327 329 329 329 329 328 327 326 325 324 324 323 323 323 323 321 320 318 314 311 310 311
307 306 306 308 310 309 308 309 309 309 311 311 311 311 312 311 312 313 312 313 314 315 315 315 315 315 315 316 316 317 317 318 319 319 319 320 320 321 322 323 322 323 324 326 327 328 327 325 325 327 328 329 330 331 331 330 330 330 331 331 330 330 330 325 325 328 330 329 328 327 327 326 325 324 324 324 323 323 322 321 321 320 317 315 312 312 313
308 307 308 310 309 308 308 309 311 312 313 314 314 314 315 314 314 313 313 314 314 315 316 317 317 319 319 319 318 318 319 319 318 318 319 320 320 321 322 324 324 324 324 325 326 327 329 331 329 327 327 328 329 329 329 330 330 330 330 331 330 329 329 329 328 329 328 328 328 329 327 326 325 324 323 323 323 322 322 321 319 317 314 312 311 310 305
313 313 314 314 314 315 315 314 314 314 314 314 315 316 317 317 317 317 318 315 314 315 317 318 319 320 321 320 320 319 319 318 318 319 319 320 321 322 323 323 323 323 323 324 324 325 328 332 333 330 329 329 329 330 329 329 330 329 329 330 331 330 331 331 330 329 328 328 328 327 326 325 325 325 325 323 322 322 321 321 319 317 314 312 311 312 309
314 313 313 314 316 316 316 316 316 316 316 315 316 316 316 316 316 316 315 315 317 319 319 319 319 319 319 318 318 318 318 319 319 319 320 321 321 322 323 322 322 321 321 322 324 326 327 331 335 335 331 331 331 331 334 331 329 329 329 328 328 329 329 329 329 328 328 328 327 327 327 327 325 324 324 323 323 323 321 319 318 317 314 313 312 312 311
314 313 313 314 315 316 316 316 316 316 316 316 317 317 317 317 317 318 319 319 319 319 319 319 318 317 317 317 318 318 318 319 319 320 321 322 322 322 322 321 321 321 321 319 322 326 327 330 333 332 329 329 331 332 335 335 329 328 328 327 327 327 326 326 326 326 327 328 327 327 325 324 324 324 324 322 322 322 321 320 319 316 315 314 313 313 313
313 313 313 313 314 314 315 316 318 318 317 317 318 318 318 317 317 318 318 318 318 318 318 318 317 318 319 319 318 318 318 319 319 319 319 320 320 320 319 320 320 321 320 320 324 325 327 329 330 327 325 326 328 330 334 334 331 326 327 327 327 326 325 324 324 324 325 326 326 327 327 326 324 323 323 322 322 322 322 320 319 317 316 315 314 314 313
312 313 314 314 314 314 314 315 316 316 317 316 316 317 319 319 319 318 317 317 318 319 318 317 317 317 317 317 316 317 317 317 318 318 318 317 318 316 316 317 319 321 323 325 324 325 328 328 326 324 325 325 326 329 332 334 331 325 325 325 326 326 326 326 325 325 324 324 324 325 325 325 324 323 323 323 323 324 323 321 319 317 315 315 314 314 313
311 311 312 313 313 314 314 314 314 315 316 316 315 315 317 318 317 317 317 317 317 319 317 317 317 316 316 316 316 315 317 317 317 316 316 316 316 315 316 317 319 321 324 327 324 326 329 330 326 322 323 324 327 327 329 330 328 325 324 323 323 325 324 325 324 324 324 323 323 323 322 322 323 323 322 322 322 321 321 321 319 317 315 314 314 313 314
310 310 311 311 312 313 313 312 312 313 314 315 316 316 317 317 316 316 315 316 317 318 316 315 314 314 313 313 313 314 316 317 317 317 316 315 314 315 315 315 319 322 323 323 324 325 327 327 326 323 322 322 325 329 326 328 324 323 324 325 324 324 323 323 323 323 322 322 321 320 319 319 320 321 321 321 320 320 319 317 317 316 316 315 314 314 314
309 310 309 309 309 310 310 311 311 310 311 312 313 313 313 313 312 311 311 312 312 313 315 316 318 314 313 314 315 315 315 316 317 317 317 317 316 316 315 316 320 322 325 323 322 323 322 322 324 326 322 321 322 325 325 321 321 323 324 325 325 325 324 323 322 320 321 321 319 319 319 319 319 319 321 322 321 321 318 316 315 316 315 315 315 315 315
309 308 308 307 308 309 309 309 309 308 308 309 310 310 311 311 310 310 310 310 309 309 309 310 312 314 313 312 312 312 313 315 316 316 315 315 316 317 316 317 319 321 324 321 321 319 321 321 322 323 325 323 321 323 320 315 316 317 321 324 325 323 323 324 322 320 320 320 320 320 319 319 319 318 318 318 319 319 318 317 316 315 315 314 314 315 315
308 307 307 307 307 308 307 307 307 308 307 307 308 309 309 309 310 310 309 309 309 309 307 307 308 309 310 310 309 309 309 310 313 314 313 312 312 314 316 316 316 319 321 318 318 318 319 321 322 323 325 325 324 321 317 314 314 313 314 314 315 316 316 316 317 319 320 320 319 318 318 319 317 317 317 317 317 317 317 316 316 316 315 315 315 315 315
305 306 307 307 307 307 306 306 306 306 307 308 308 308 308 307 307 308 308 308 308 308 310 307 307 307 307 307 306 306 307 307 309 310 309 309 309 309 314 317 316 316 317 318 315 316 318 319 321 324 323 322 321 320 315 315 314 315 313 313 313 313 313 312 312 312 315 316 316 317 317 315 315 315 315 316 317 317 317 317 316 315 315 314 314 315 315
303 304 305 309 305 306 306 307 307 308 307 306 306 307 307 306 306 307 307 306 306 306 306 306 306 306 306 306 306 306 306 306 306 307 309 309 309 310 314 316 315 317 317 317 314 314 316 321 320 319 320 320 319 315 314 314 314 313 312 311 312 313 312 311 311 310 311 311 313 313 312 312 311 311 312 312 312 313 313 315 314 313 314 315 315 316 316
302 302 303 303 304 305 306 306 307 307 306 306 304 304 306 306 305 305 305 305 305 305 305 306 306 306 306 306 305 304 303 303 303 305 306 307 311 311 313 314 315 316 315 313 314 314 316 316 318 317 317 317 316 312 311 311 311 310 310 310 309 309 310 309 309 309 309 309 310 312 312 311 308 308 309 310 309 309 310 309 309 310 311 312 313 314 314
301 301 302 303 303 304 305 304 304 303 303 304 305 306 306 305 304 304 304 304 303 303 303 303 305 306 306 306 306 306 305 303 300 301 304 305 306 308 309 309 310 313 313 313 314 316 316 316 315 315 314 314 310 309 309 309 309 309 308 308 307 307 307 307 307 307 307 307 307 307 307 308 308 308 308 307 307 308 308 307 306 307 307 307 308 309 311
301 302 302 303 303 303 303 303 303 304 303 305 306 306 307 305 305 305 304 303 302 302 301 301 302 302 304 307 307 305 307 307 304 302 305 305 304 305 306 308 310 310 308 307 307 310 313 312 312 312 312 312 307 307 307 308 308 309 308 307 306 306 306 305 306 306 305 305 305 305 305 304 304 305 305 305 305 305 306 306 306 306 306 307 307 308 308
301 301 301 301 301 301 301 301 301 301 303 305 305 306 306 305 302 302 303 303 303 303 301 301 301 301 301 302 303 304 305 307 306 305 305 305 304 303 304 305 306 307 307 304 305 306 311 311 310 311 310 307 307 307 307 306 307 307 307 307 307 305 305 305 305 304 305 305 304 304 304 304 303 303 304 303 303 303 304 304 304 303 303 304 304 304 304
299 299 299 302 301 302 301 301 302 302 302 303 303 304 303 302 302 303 301 301 300 301 300 300 300 300 300 300 301 303 303 303 305 307 304 303 304 305 305 303 303 304 303 301 301 300 302 306 307 308 307 307 306 307 307 306 306 306 306 306 306 306 305 305 305 305 305 305 304 303 303 303 303 303 302 302 302 301 301 301 301 301 300 300 300 301 301
298 299 299 300 300 300 301 302 302 302 302 303 302 302 301 301 300 299 300 303 298 297 298 298 298 300 301 300 301 301 302 303 303 302 304 303 301 300 302 303 300 300 298 299 298 299 300 301 305 308 308 305 305 305 306 306 305 305 305 306 305 305 306 305 305 304 304 304 303 303 303 303 302 301 301 301 301 300 300 300 299 299 299 298 298 299 298
Wind_Speed
7 7 10 12 9 5 7 11 11 12 12 14 21 20 7 12 14 19 8 6 6 5 7 9 10 10 9 11 12 10 7 5 5 5 7 8 9 8 6 8 10 13 14 14 16 16 17 17 16 17 16 15 14 14 14 14 15 17 17 16 17 18 17 18 19 19 17 15 14 14 15 15 15 15 15 14 13 12 13 13 12 13 13 13 13 13 13
8 9 9 9 8 4 6 10 12 14 14 18 19 15 13 14 11 7 9 9 13 10 8 9 9 9 8 4 2 0 2 6 7 5 6 8 7 8 11 12 12 13 15 15 15 16 16 17 17 17 16 15 16 17 17 16 17 17 15 17 17 17 18 19 18 16 15 14 14 14 14 15 15 15 14 13 13 14 14 14 13 13 12 13 14 15 14
7 11 7 5 7 9 11 10 10 12 15 16 16 12 12 9 11 10 7 5 11 7 4 7 9 7 4 3 4 8 7 6 5 6 8 8 10 11 10 9 11 12 14 13 12 12 14 16 18 18 18 18 18 18 17 17 18 17 17 17 17 17 19 19 17 15 14 14 14 15 16 15 14 14 14 13 14 14 14 14 14 13 13 15 15 14 14
7 5 5 12 14 15 13 12 12 11 10 13 10 10 7 8 10 7 12 14 10 7 7 6 9 9 8 8 9 9 8 7 7 8 9 10 11 11 10 10 10 11 12 12 13 15 17 18 18 17 17 16 16 17 17 17 17 15 16 16 18 19 19 16 15 16 16 15 15 16 15 16 15 15 14 14 15 15 14 14 13 13 15 16 15 14 13
4 10 5 11 14 11 10 16 12 9 8 9 6 7 8 15 12 12 16 15 6 11 9 8 10 10 12 9 7 9 10 8 8 10 10 11 10 10 10 8 10 12 14 15 15 16 16 17 17 18 19 17 18 18 17 18 14 15 17 18 18 17 16 15 16 16 15 16 17 16 16 16 14 14 15 15 15 15 16 15 13 16 17 16 15 14 14
3 13 11 8 4 6 12 2 1 2 9 11 12 14 11 8 12 15 10 11 10 9 8 12 12 13 10 13 12 6 7 6 7 9 9 10 10 9 8 8 10 12 11 11 14 17 18 18 20 20 17 19 20 19 18 14 14 16 17 17 16 17 15 16 16 16 16 16 17 17 16 15 15 15 15 17 16 15 14 13 15 15 15 16 15 15 15
3 9 7 3 7 14 3 15 9 6 8 7 15 17 16 13 13 13 9 7 7 11 13 16 17 16 14 5 5 3 7 6 7 8 9 10 12 12 10 8 10 11 12 12 11 11 12 14 12 10 11 13 10 8 9 14 16 16 17 17 17 16 16 16 15 14 16 16 17 15 15 15 15 16 17 16 16 14 14 15 16 16 16 16 15 15 16
1 3 1 4 10 4 11 6 5 9 4 10 9 10 17 17 13 12 13 10 9 9 11 11 12 11 4 2 3 3 2 7 7 7 10 12 8 10 11 9 8 8 11 13 14 15 14 12 11 12 14 12 12 13 13 15 15 15 16 16 17 15 15 15 16 16 16 16 15 14 15 15 16 17 16 17 17 15 13 13 13 13 13 14 15 15 14
3 5 6 9 11 16 9 4 5 7 4 5 3 6 10 4 2 8 9 10 9 7 6 9 4 1 2 1 2 2 1 1 4 7 7 7 9 9 9 7 9 5 4 5 7 4 2 6 9 11 10 10 12 12 13 15 15 16 15 16 16 16 17 16 17 16 16 17 16 16 16 16 17 17 17 16 15 13 14 14 13 14 15 14 14 14 15
7 6 6 5 2 3 4 3 1 2 1 3 4 5 10 5 8 6 9 11 11 11 6 3 4 5 6 5 4 3 1 1 1 0 3 4 4 5 7 5 4 4 5 5 3 3 4 6 10 8 10 12 12 13 14 13 13 14 15 16 16 15 16 16 17 17 17 16 16 17 17 18 19 18 17 14 15 14 15 14 14 14 13 13 14 14 15
5 5 6 4 3 7 4 3 5 4 3 2 2 3 9 3 9 10 4 8 12 13 10 6 6 8 7 8 7 6 2 1 1 3 2 2 3 4 5 5 4 3 3 4 4 5 7 9 6 8 11 13 14 13 13 14 15 16 17 18 16 16 17 16 16 15 15 16 16 16 17 18 17 17 17 16 14 13 13 13 14 13 12 13 13 13 15
8 8 8 9 3 6 1 4 6 9 2 1 4 3 8 3 15 13 10 10 11 11 9 12 12 11 8 8 9 3 2 1 0 2 3 4 6 6 4 5 3 2 1 3 4 4 5 5 5 5 7 9 11 12 14 14 14 16 16 16 14 15 15 13 13 14 14 16 16 17 18 17 15 15 13 11 13 14 13 12 12 12 12 13 14 13 12
10 12 7 5 5 4 2 5 7 7 5 3 7 12 3 12 16 14 11 14 12 9 6 11 10 10 5 5 3 2 1 1 3 3 3 3 4 6 9 9 7 8 9 7 6 6 4 1 4 6 8 9 10 10 9 11 15 16 13 10 11 12 11 11 13 14 14 16 18 17 16 15 14 13 13 14 14 14 14 11 11 11 14 12 12 14 13
11 8 10 9 5 5 1 4 0 5 2 4 9 3 9 13 15 16 14 15 11 4 9 10 7 6 4 6 4 6 5 5 2 3 4 6 7 7 8 10 10 9 10 10 10 11 9 9 2 5 6 8 8 7 9 13 17 15 12 13 12 12 12 14 14 14 15 14 14 13 12 12 13 14 14 13 13 14 12 12 13 14 13 12 13 13 12
8 7 7 6 9 2 1 5 1 6 2 4 5 11 12 7 12 14 14 9 6 0 3 0 4 9 7 8 7 6 5 4 6 8 10 12 11 10 10 12 11 10 11 12 12 10 9 8 8 4 3 7 6 6 9 13 6 2 4 6 8 9 11 13 14 15 15 16 14 12 13 14 15 15 12 13 14 14 14 14 14 15 14 13 12 12 11
9 9 11 8 5 5 6 1 3 2 4 4 7 6 11 9 8 10 11 8 6 6 2 2 5 5 8 8 5 6 6 6 6 9 10 10 10 10 10 9 7 8 10 10 10 10 9 10 9 7 5 2 5 7 8 1 2 2 4 5 5 7 8 9 9 10 11 12 12 11 14 14 14 14 14 15 14 13 14 14 14 14 14 13 13 13 13
5 5 6 2 6 5 2 1 3 5 1 4 7 7 5 9 9 10 8 9 9 7 3 2 3 7 8 8 6 8 6 8 10 11 11 10 10 9 10 9 7 8 10 10 10 11 10 10 11 10 8 4 1 2 5 5 1 3 5 5 7 7 8 8 9 8 8 10 12 12 13 14 15 15 16 15 15 15 14 14 14 15 15 14 14 14 13
10 13 5 7 6 4 5 3 4 7 5 3 6 6 6 6 7 8 8 10 7 5 4 1 6 7 6 9 9 10 10 11 10 9 10 11 8 7 7 8 7 6 7 9 11 12 11 11 9 9 9 9 9 6 7 6 4 3 3 6 7 9 9 9 10 10 11 12 13 15 16 15 16 16 16 15 15 14 15 16 16 17 16 16 16 15 14
11 7 5 4 6 5 5 7 6 9 7 3 5 6 5 6 8 10 9 9 6 7 7 7 10 10 9 10 10 9 10 11 11 11 11 11 12 13 14 11 9 9 9 9 10 10 11 9 8 8 8 8 6 5 6 6 7 5 3 5 7 7 8 9 9 10 13 11 11 12 13 12 12 12 11 12 13 12 13 14 15 16 15 15 16 15 15
10 8 1 5 4 3 3 3 5 8 7 6 7 5 6 6 8 7 9 9 8 7 8 6 9 10 10 10 8 8 8 9 8 9 9 9 10 10 9 11 12 12 13 11 9 9 8 7 6 6 6 7 7 6 6 6 6 6 5 3 4 5 5 5 6 8 9 12 12 10 11 12 12 11 11 12 13 14 16 16 16 15 15 16 16 16 16
11 16 8 5 4 1 4 6 8 9 6 1 6 7 10 10 8 10 9 9 8 10 9 8 8 10 8 8 9 11 10 9 9 9 9 8 8 7 9 8 9 9 8 10 10 10 9 7 6 6 7 6 5 7 6 6 6 5 5 3 2 2 2 3 5 5 6 7 8 10 10 11 12 13 14 14 15 16 18 17 18 19 18 17 16 15 13
9 10 8 7 8 4 1 6 8 9 5 4 3 7 8 10 7 7 10 8 8 10 9 8 6 8 8 7 7 8 7 8 8 8 9 9 9 9 8 7 9 9 9 8 8 8 8 8 8 8 8 7 6 6 5 5 5 6 4 4 5 5 4 3 2 1 1 1 1 3 5 6 8 9 7 9 12 16 17 21 24 23 19 17 17 12 10
10 8 8 7 1 4 3 7 6 10 6 4 4 8 5 6 9 8 8 9 6 9 11 11 10 8 5 5 7 10 10 9 8 8 10 10 9 9 8 9 8 8 7 8 8 8 6 6 8 8 8 8 8 8 7 7 6 6 4 5 4 3 3 3 3 2 2 2 2 2 2 1 3 6 8 9 11 15 20 23 17 20 17 13 16 19 19
17 20 20 11 4 6 6 6 6 7 6 7 8 7 6 5 9 11 10 9 6 6 11 13 12 12 10 6 4 10 9 9 10 10 10 11 10 10 9 10 9 9 10 10 9 8 7 7 7 8 8 9 9 8 7 7 6 6 6 5 5 4 4 3 4 4 4 4 3 4 5 6 6 6 7 9 11 12 16 18 20 11 11 17 22 24 26
14 13 9 9 3 3 6 8 7 5 3 7 9 8 8 8 10 11 8 8 12 9 13 12 11 8 8 5 3 8 9 9 9 11 11 11 12 11 10 11 10 9 8 7 7 7 8 9 8 8 9 9 8 7 6 6 6 6 6 6 5 5 5 5 5 5 4 4 5 5 6 6 7 7 7 7 8 10 11 6 9 11 20 23 26 30 29
16 13 10 8 1 3 4 9 8 6 4 8 10 5 3 5 8 8 8 10 10 12 10 6 0 3 5 3 5 8 11 10 9 9 10 10 10 10 11 11 9 8 8 8 8 8 9 10 9 10 10 9 8 6 5 6 7 6 6 5 5 4 4 5 6 6 6 6 5 6 5 6 6 7 6 6 6 1 5 8 5 8 16 15 28 31 24
9 7 8 4 2 3 1 4 6 5 5 6 10 5 1 3 8 8 7 8 8 8 6 4 3 3 4 6 7 10 9 8 10 10 9 11 13 10 8 6 8 9 9 9 9 9 10 9 10 9 9 9 7 6 5 5 6 7 6 6 6 7 11 8 5 6 5 5 5 4 5 5 6 6 6 5 3 2 4 7 8 11 14 5 13 13 27
9 7 8 5 7 7 3 7 9 8 7 7 7 6 2 3 9 11 9 7 9 8 6 8 7 8 9 9 8 8 11 12 10 10 10 10 7 5 6 8 8 8 8 9 9 9 9 9 9 10 9 8 7 5 5 6 6 6 7 7 6 6 5 6 5 6 6 6 5 4 4 5 4 4 4 4 4 3 1 6 11 13 10 8 12 7 8
7 7 8 3 1 3 6 7 9 10 8 4 3 4 5 8 9 10 9 9 7 6 8 8 7 8 7 7 7 9 9 9 10 10 8 8 8 7 6 7 9 10 10 10 9 9 9 9 9 11 10 9 8 7 6 6 6 6 6 6 6 6 6 5 4 5 6 6 6 5 4 5 6 7 6 6 3 3 2 0 3 3 2 10 12 15 12
3 3 4 5 7 5 8 9 8 9 8 5 7 6 5 7 9 9 9 9 6 6 5 4 7 8 6 8 8 7 8 8 7 7 9 10 10 10 9 6 10 12 12 13 12 10 10 10 10 9 8 8 8 8 7 6 5 6 6 7 6 5 5 5 5 5 6 6 6 6 7 7 8 7 5 2 3 6 8 11 16 18 13 9 15 13 13
5 5 3 6 7 5 6 8 7 6 6 6 5 6 5 7 10 9 8 6 5 5 5 5 6 7 8 7 5 5 6 7 8 9 10 10 11 11 10 12 14 13 13 10 10 10 9 9 9 8 7 6 6 6 7 7 6 5 5 6 6 9 11 10 7 6 5 5 6 6 6 7 7 6 3 3 6 8 8 11 13 11 10 11 13 12 9
8 8 7 5 5 9 6 5 7 7 6 6 7 6 4 8 10 10 7 7 5 3 4 6 7 6 4 4 5 6 8 9 9 10 11 11 11 10 10 11 12 12 10 10 10 10 10 9 10 9 7 7 7 6 6 6 5 6 6 6 6 5 7 10 7 7 6 5 5 6 5 5 6 6 5 5 5 8 8 7 8 11 11 12 10 9 8
12 10 9 9 6 5 7 6 8 7 6 8 6 4 5 6 7 7 6 5 5 5 6 5 3 4 4 5 7 8 8 9 10 11 12 11 11 10 9 8 9 11 11 10 10 8 9 10 8 8 8 7 7 7 7 6 6 5 5 5 6 6 6 6 5 4 4 5 6 6 5 5 5 5 7 7 5 6 5 6 7 9 11 13 11 7 4
7 9 11 12 13 12 12 9 7 7 6 6 5 5 6 6 7 7 5 4 6 7 6 5 4 5 6 8 8 9 10 12 11 11 11 10 9 9 8 8 8 10 10 11 11 10 8 8 7 7 8 9 8 7 7 7 6 6 5 5 5 5 5 4 4 4 4 5 5 6 5 5 4 5 7 7 6 6 7 8 8 9 11 10 9 7 7
7 7 5 6 7 6 6 9 9 9 8 9 7 6 5 5 6 6 4 6 7 6 5 7 7 8 9 10 10 10 11 10 9 9 9 8 8 7 7 9 10 10 12 12 11 10 9 8 7 7 8 9 8 7 6 7 6 6 6 6 6 5 4 4 5 5 5 5 4 4 5 5 5 6 7 7 7 7 7 7 6 7 8 8 7 6 7
9 7 6 6 7 9 7 7 7 9 8 8 7 7 7 6 7 8 8 7 6 8 8 9 9 9 10 10 9 10 10 9 9 9 9 8 7 7 10 11 11 11 11 12 11 9 9 8 13 12 7 7 7 8 7 7 6 5 5 6 5 5 5 4 4 5 5 5 5 5 6 5 6 6 6 5 6 6 7 7 6 6 6 7 8 6 6
10 9 8 8 7 7 8 7 6 7 7 7 8 8 9 8 8 7 7 8 9 8 8 8 9 10 9 8 9 9 10 9 9 9 8 7 7 10 10 11 11 11 11 12 10 9 8 9 14 15 9 7 8 8 10 13 7 7 6 7 6 5 5 5 4 4 4 4 5 5 5 5 5 5 5 4 4 4 5 6 6 6 6 6 6 6 6
10 11 10 9 9 10 10 8 7 7 8 9 8 8 9 8 8 9 9 8 8 7 7 8 8 8 9 10 11 12 11 10 9 8 8 9 8 10 11 11 11 9 10 9 8 8 8 11 15 10 8 8 7 7 9 13 10 6 5 6 6 6 6 5 5 5 5 5 5 4 5 4 4 5 4 4 4 4 4 4 5 6 6 6 5 5 5
11 10 10 9 9 10 11 11 11 9 9 10 9 9 8 9 10 10 10 8 6 6 8 9 10 12 12 13 12 11 11 9 8 8 8 8 9 12 11 10 8 8 7 7 7 7 9 10 8 8 8 7 8 7 8 11 10 7 6 5 6 6 5 5 4 4 4 5 5 5 4 4 4 4 4 4 4 4 4 4 5 5 5 5 5 5 4
11 10 10 9 9 9 10 10 10 10 9 9 9 9 8 11 11 11 11 10 8 8 9 11 12 12 12 12 12 10 9 8 7 8 8 8 9 10 10 11 11 9 10 12 9 8 12 16 10 7 7 7 6 6 7 10 9 6 6 6 5 5 5 5 5 5 4 4 5 5 4 4 4 5 6 5 5 5 4 3 4 5 4 4 3 4 4
12 11 10 10 10 9 10 11 11 11 10 10 10 9 9 10 11 12 11 10 10 11 12 11 12 12 12 11 10 10 9 10 10 10 8 9 11 10 11 11 9 9 11 11 10 11 13 12 10 9 8 8 8 8 6 9 6 5 5 5 5 5 5 5 5 5 5 4 5 5 6 5 3 5 5 5 5 5 6 5 5 3 4 5 5 4 4
11 12 12 12 10 10 10 11 12 12 10 8 10 11 12 12 12 12 10 10 11 12 12 12 14 12 10 11 11 11 11 11 12 13 13 13 11 9 11 9 8 9 16 15 13 12 10 10 10 10 10 10 10 17 16 8 7 7 6 6 6 6 5 4 4 3 3 3 3 3 3 4 3 3 2 4 4 5 6 5 5 2 3 5 6 6 6
11 12 12 12 10 10 10 11 12 11 11 12 11 10 10 10 11 11 12 12 12 12 13 12 13 13 12 12 12 11 10 9 11 11 12 12 12 11 9 7 8 11 18 12 12 10 10 9 9 10 17 16 14 21 18 11 9 9 8 8 8 8 7 5 5 5 4 3 3 3 4 3 1 1 1 1 4 4 4 5 6 4 2 3 4 5 5
13 12 11 10 10 11 11 12 13 14 14 12 11 11 12 11 11 11 12 13 13 13 13 13 12 12 12 12 12 10 9 9 8 8 9 10 11 12 10 9 8 13 20 11 9 10 10 10 11 17 22 24 24 23 13 10 10 10 9 9 9 9 9 9 8 6 5 5 5 4 4 3 4 3 2 1 2 3 3 4 4 3 3 4 4 3 4
14 13 14 13 13 12 12 12 12 12 11 12 13 13 12 12 12 12 12 13 13 12 11 11 11 11 11 11 10 9 9 9 9 8 9 9 9 9 9 11 12 10 13 16 9 10 10 12 18 24 21 23 22 20 12 11 11 10 11 10 9 9 9 9 9 9 8 7 6 5 6 6 5 4 3 4 4 3 2 2 2 2 3 3 4 4 5
14 14 15 15 14 11 9 9 9 11 13 14 14 13 12 12 13 12 12 13 13 12 12 12 11 10 8 8 9 10 12 11 11 10 9 8 8 6 8 11 10 12 18 18 10 10 11 21 24 22 23 22 21 13 10 10 10 10 11 10 10 11 10 10 10 10 10 9 8 7 7 6 7 7 7 5 5 6 6 3 1 2 2 1 2 3 4
14 14 14 12 11 11 11 12 14 15 15 14 13 10 10 11 12 11 10 11 12 12 12 12 12 10 9 9 8 8 9 10 10 9 8 8 8 10 12 16 15 18 15 12 11 11 12 14 18 22 22 22 20 11 11 11 10 10 10 10 10 10 10 11 11 10 10 9 10 9 10 9 8 8 8 7 8 7 6 6 6 6 4 2 1 1 2
13 13 12 12 12 12 13 14 15 14 12 10 8 8 8 10 11 10 10 11 12 12 13 11 11 11 11 11 11 10 7 7 11 9 7 7 7 8 8 9 11 16 16 15 16 17 24 22 22 22 22 19 12 10 11 10 10 9 10 10 10 11 11 10 10 10 10 10 10 10 9 9 9 8 8 8 8 8 7 7 7 5 5 4 5 5 6
11 11 11 12 13 14 13 12 12 11 9 8 8 8 8 10 11 11 10 10 12 12 11 11 12 11 10 10 11 9 9 9 9 7 6 7 8 8 8 10 16 16 11 9 9 9 18 21 20 20 19 16 10 9 9 9 10 10 9 9 9 9 10 9 9 9 11 10 9 10 10 10 10 9 9 8 7 7 7 7 7 7 7 6 7 6 5
12 12 13 12 12 12 11 10 9 8 7 8 8 7 7 10 11 10 8 8 9 10 10 10 9 9 9 9 9 9 9 9 10 9 8 9 10 9 9 9 10 16 15 10 9 8 13 18 17 17 12 8 8 8 8 8 8 9 8 9 8 8 9 10 10 13 11 9 9 9 9 9 9 10 9 8 8 8 7 7 6 8 13 9 7 7 7
10 9 9 9 9 9 10 9 8 8 8 9 8 8 9 10 9 9 9 8 7 9 8 8 9 9 9 9 8 9 9 9 10 12 9 9 9 12 13 10 11 11 10 10 8 8 7 8 8 9 9 8 7 7 7 8 7 8 8 7 8 7 8 9 8 8 9 9 8 8 9 8 8 8 8 8 9 9 9 9 9 9 9 8 7 6 6
9 8 7 8 9 9 9 9 9 8 8 8 8 9 9 8 8 9 10 13 10 8 7 8 10 9 9 8 9 8 9 10 8 8 10 10 9 7 9 13 9 9 9 8 7 8 7 8 10 12 12 8 7 7 9 11 8 8 8 7 7 7 8 8 8 8 8 8 8 8 9 8 8 9 9 9 9 8 9 9 9 8 8 8 8 8 8
Wind_Direction
322 289 280 284 291 231 245 256 254 253 237 209 214 220 195 162 210 233 226 178 189 235 228 229 220 203 205 219 230 230 230 260 269 253 240 228 227 237 230 220 205 202 203 201 200 195 195 192 192 195 196 197 198 200 201 196 194 197 192 191 194 196 196 200 204 204 202 199 198 196 195 196 198 198 197 197 194 192 193 196 199 200 200 200 203 207 209
313 296 283 282 271 283 275 257 257 254 246 237 227 220 210 202 228 234 231 179 200 203 222 228 238 225 215 229 202 76 252 255 249 255 280 267 243 223 221 218 209 207 208 204 202 196 193 190 192 192 194 195 196 196 196 193 195 198 187 194 195 196 199 203 205 202 198 196 195 194 195 197 198 197 196 194 193 195 197 197 197 196 197 201 205 208 206
312 300 299 284 314 299 289 282 267 258 255 251 243 235 227 212 241 233 245 180 226 250 244 241 256 268 329 333 261 239 231 248 254 243 244 248 250 241 228 224 216 212 212 207 201 198 198 194 193 191 193 196 196 197 196 193 196 193 187 194 194 196 202 203 200 196 195 197 193 195 197 197 196 195 195 193 196 198 198 196 195 193 196 203 207 208 207
311 294 334 321 319 311 283 264 258 258 249 251 247 236 222 206 218 211 237 243 232 253 257 263 272 278 279 252 245 247 247 242 245 236 240 240 243 247 240 223 215 214 214 207 196 197 198 199 196 194 194 195 192 197 195 196 196 187 190 194 196 200 203 198 194 195 196 193 194 198 195 197 194 194 194 195 198 198 197 197 195 193 200 206 207 206 207
249 282 306 326 313 321 303 262 263 251 236 244 257 251 212 214 207 214 220 231 209 212 203 216 252 251 253 256 250 252 248 233 230 231 229 230 237 242 247 232 215 214 210 205 200 200 200 198 197 199 194 189 192 196 193 198 184 182 192 196 199 202 200 194 195 196 193 193 197 196 196 195 192 191 195 198 199 197 199 197 193 198 204 204 206 205 205
272 293 316 312 326 259 242 103 358 241 241 221 224 239 229 223 194 230 225 224 200 201 179 200 229 235 233 228 235 206 215 216 236 251 259 255 248 254 256 238 220 219 215 210 206 202 198 199 199 199 192 192 197 195 193 179 178 189 191 196 198 201 196 196 197 194 192 194 197 198 193 190 191 193 196 200 200 199 198 195 199 204 206 206 206 205 207
281 296 319 343 234 241 356 332 357 338 292 264 225 228 228 222 221 237 248 240 215 203 197 200 215 226 231 249 263 258 221 202 212 232 252 261 259 254 254 248 230 217 211 212 211 208 208 204 201 190 196 204 197 181 174 181 189 189 193 194 196 197 196 197 194 193 194 197 199 195 192 191 192 196 198 200 200 199 197 198 200 204 205 206 207 206 207
266 329 262 227 234 262 320 313 341 337 62 24 6 280 243 228 213 206 227 231 228 210 209 218 223 232 245 287 272 236 209 179 197 217 241 255 262 263 254 248 247 223 212 208 205 208 205 193 186 188 196 189 180 186 183 187 189 192 193 194 198 194 195 194 194 195 194 196 196 193 192 193 195 198 199 200 200 198 199 203 205 206 209 209 209 209 207
177 212 239 250 309 319 333 360 6 33 31 345 6 277 278 289 236 188 212 230 247 259 233 223 224 111 107 205 267 245 210 190 209 214 250 264 268 263 268 245 246 245 253 244 240 247 199 183 179 192 184 173 183 180 183 191 190 194 193 197 197 194 196 194 195 194 194 194 193 192 192 194 198 200 200 201 201 197 202 203 201 204 208 207 209 208 206
170 223 277 307 338 257 282 185 68 207 191 229 186 154 287 278 252 214 202 212 224 234 241 186 167 140 133 197 241 256 239 254 355 287 251 284 292 291 277 277 257 246 239 211 191 186 191 194 195 181 168 176 176 182 190 187 186 192 196 202 199 195 197 195 195 193 193 191 192 193 193 197 199 200 200 200 200 196 201 200 204 206 203 207 210 209 208
171 199 228 218 203 240 201 260 274 272 256 192 155 105 268 298 357 352 286 234 216 205 197 168 148 136 169 218 225 237 272 301 127 71 343 345 1 357 354 351 330 261 216 199 186 157 168 195 200 181 176 174 177 186 187 188 191 195 200 202 194 194 199 198 196 193 191 192 195 196 198 202 199 199 199 200 199 194 203 204 208 204 202 209 211 211 213
192 192 217 238 203 250 265 298 316 318 317 135 125 212 259 320 348 333 333 287 255 227 195 156 168 166 192 211 225 227 234 213 281 114 59 33 26 23 359 1 334 309 295 115 118 147 158 161 144 175 176 175 186 187 190 190 194 203 208 205 196 197 198 192 189 190 192 193 197 197 201 200 198 202 198 196 199 202 207 208 206 203 205 211 211 212 210
208 203 243 284 280 279 276 316 316 321 346 99 165 218 249 326 321 314 307 292 269 262 215 164 177 217 200 170 150 64 16 171 24 34 64 66 56 34 20 13 16 48 43 58 61 49 25 353 142 159 163 177 191 195 191 194 206 209 204 191 192 202 194 189 191 194 194 197 199 201 199 196 196 196 193 197 196 198 203 202 207 208 209 209 212 217 214
220 207 216 234 257 236 246 278 348 339 88 204 222 304 317 302 309 306 295 284 274 223 230 215 182 152 145 109 96 83 67 72 1 19 74 90 65 48 41 32 39 54 57 53 43 28 17 1 356 157 160 180 192 183 193 207 211 206 195 192 191 186 185 191 194 194 197 200 201 200 195 191 193 199 199 195 195 198 198 197 203 211 210 209 212 214 213
223 212 213 212 231 262 205 255 60 34 84 256 277 306 308 317 303 307 306 289 318 307 245 0 128 133 117 106 96 83 72 57 40 35 43 49 48 35 33 38 36 52 58 53 49 41 23 20 16 349 175 174 181 190 208 222 208 165 182 188 193 195 196 197 195 195 196 193 193 193 193 196 197 198 193 196 198 194 193 195 201 206 209 210 213 214 212
206 199 211 213 186 178 247 206 131 196 183 257 296 308 299 324 320 318 312 311 338 16 352 212 117 111 110 94 106 98 69 57 55 51 52 52 51 49 46 51 51 62 73 66 57 45 40 38 32 30 31 197 194 197 225 21 152 155 155 172 177 187 198 205 203 203 200 199 194 192 194 194 197 198 195 197 195 195 197 197 199 203 205 206 207 212 212
256 239 211 195 124 141 223 146 142 148 203 295 295 299 298 317 326 317 311 319 330 29 28 327 70 74 65 83 79 91 80 73 65 61 55 51 51 49 49 39 41 59 70 74 72 55 38 32 36 34 31 43 351 309 349 343 291 181 166 159 169 186 194 197 200 201 192 193 196 197 198 195 198 201 202 195 195 197 194 199 201 203 204 200 203 207 207
272 248 242 143 127 154 143 157 120 106 58 339 318 320 339 324 318 327 316 314 316 12 22 265 67 70 80 78 67 64 58 57 51 49 50 48 60 80 89 56 32 43 59 66 58 55 40 33 34 35 34 40 43 2 339 344 337 320 195 176 183 192 192 192 195 189 191 198 199 202 201 200 203 202 199 197 201 199 196 199 200 202 203 199 202 203 202
280 244 154 138 143 174 155 134 127 91 82 5 333 321 325 324 339 336 343 324 337 44 68 80 88 78 65 72 68 63 63 57 52 50 50 39 32 25 24 17 30 47 54 52 48 52 53 35 33 35 42 44 38 8 2 349 344 329 268 207 204 201 201 202 200 196 201 203 206 208 206 208 209 208 205 203 205 204 204 206 207 208 205 202 203 200 196
275 281 287 131 142 175 186 149 90 64 48 12 328 322 330 351 346 348 351 341 10 42 59 51 83 78 77 78 75 73 69 73 67 65 59 52 41 31 30 21 21 25 26 27 27 30 39 25 30 37 39 36 23 18 15 12 360 357 345 288 242 235 224 215 206 204 209 210 206 205 206 206 207 207 207 206 207 207 204 204 203 208 211 208 203 198 194
298 290 258 177 156 104 91 83 83 95 89 46 308 4 357 346 358 0 356 5 5 37 47 33 61 77 66 75 86 88 82 72 68 63 67 60 62 54 48 40 44 46 32 26 15 13 12 11 22 26 31 34 29 31 17 7 11 25 19 347 346 339 300 207 218 218 221 218 213 212 208 209 213 209 201 202 208 214 213 206 203 203 205 208 208 204 193
264 252 234 189 172 218 200 101 100 85 86 81 15 29 22 327 327 33 356 354 21 42 41 39 32 85 96 96 94 84 72 72 72 73 70 67 64 60 60 64 61 60 55 49 37 26 5 359 8 16 17 17 18 27 26 23 23 43 33 45 54 44 34 46 43 53 64 71 323 258 232 230 231 237 259 255 230 214 217 218 218 216 203 202 198 175 161
265 279 301 284 239 106 159 139 123 114 109 95 64 69 49 343 327 20 26 324 12 45 39 30 31 10 44 87 97 89 85 78 80 77 74 71 64 58 54 59 55 55 52 49 51 41 20 4 14 16 14 11 12 15 20 27 30 35 49 70 71 61 55 51 49 61 56 53 34 51 60 81 164 228 252 272 294 329 348 337 281 236 223 199 152 158 162
274 280 277 270 258 171 168 136 119 110 129 130 93 56 39 22 360 5 18 328 298 64 50 38 23 359 333 329 61 89 82 78 78 74 71 71 67 67 57 55 52 46 41 39 41 38 30 28 27 20 16 11 10 14 25 32 39 47 48 65 66 53 48 50 52 59 62 61 53 49 29 28 30 24 10 351 335 341 3 358 329 262 188 162 166 167 165
259 262 299 302 266 134 119 120 107 96 117 103 74 40 14 16 26 15 6 345 323 19 71 49 22 341 299 304 31 71 77 68 68 74 73 69 64 59 55 52 43 40 38 38 37 36 36 36 31 26 26 15 8 16 21 28 37 55 60 67 67 59 53 44 46 52 57 65 66 66 63 54 56 53 48 29 4 338 328 3 332 248 185 180 175 173 173
247 256 277 287 329 111 131 97 76 84 79 98 98 78 8 11 48 30 5 11 1 359 28 54 291 283 301 339 40 65 66 62 62 66 66 65 61 56 50 52 50 51 48 44 42 37 41 42 40 34 26 13 15 18 26 35 39 44 46 56 63 70 58 60 60 53 47 48 52 62 69 80 83 77 72 59 29 304 271 297 311 306 294 225 183 172 167
269 260 254 162 93 166 281 108 141 124 93 75 89 104 325 43 58 58 20 24 19 2 5 20 355 327 8 14 42 46 61 59 54 49 54 57 60 60 57 55 57 57 55 49 43 41 44 44 45 39 28 17 18 29 37 45 49 39 33 35 31 50 54 58 55 56 52 44 43 50 75 97 113 126 118 97 100 147 248 260 246 234 198 261 306 218 158
258 244 234 223 188 176 143 102 111 106 100 104 108 109 110 62 67 56 40 19 27 3 13 23 27 31 35 8 27 45 44 47 48 43 43 42 37 31 45 52 55 56 55 51 44 39 44 49 48 41 29 12 15 29 35 40 46 50 51 50 46 45 44 51 62 66 65 60 57 55 52 38 26 43 94 118 97 88 206 270 270 243 220 206 150 30 22
241 229 209 230 107 106 118 111 102 98 95 76 88 113 101 84 77 68 60 36 9 359 21 25 29 42 47 29 37 50 50 50 47 40 39 38 35 27 29 54 58 55 50 45 39 33 37 42 43 39 24 10 15 29 45 49 59 58 58 55 56 52 51 53 67 87 88 88 78 66 62 62 55 49 56 60 81 114 211 32 288 76 211 146 125 109 80
258 197 161 135 126 137 120 108 112 117 117 134 114 108 118 110 90 84 75 61 13 15 6 22 48 45 43 54 43 50 57 55 58 54 51 46 40 33 29 34 59 48 43 36 27 24 34 37 40 39 23 19 32 29 35 43 49 55 61 59 62 65 64 57 59 62 82 82 74 66 57 57 57 57 62 46 34 60 47 51 48 22 7 52 73 76 88
104 125 123 120 121 98 97 110 106 101 109 104 105 105 90 91 98 91 86 85 67 37 8 43 48 51 45 48 39 43 58 57 51 49 46 44 41 36 32 41 53 49 46 37 28 27 29 34 39 33 13 17 39 43 45 41 36 35 53 67 68 66 68 68 62 61 54 73 83 73 71 68 66 73 69 46 73 62 49 76 69 58 39 49 75 74 64
114 110 103 90 106 117 105 99 103 103 101 106 99 85 96 98 99 98 91 78 74 78 54 50 49 51 49 42 47 50 53 52 50 47 44 40 38 34 35 43 53 55 51 46 42 39 34 30 32 17 1 10 27 39 51 51 46 39 35 43 43 39 51 63 68 55 61 64 70 76 76 73 72 73 64 59 55 84 96 57 81 100 96 77 59 64 92
124 125 122 118 103 107 116 117 113 113 109 100 94 106 89 81 84 89 97 114 102 82 75 71 66 64 65 64 61 57 57 55 51 45 39 34 29 27 28 40 49 51 47 40 38 39 40 37 23 14 10 9 21 27 33 39 39 42 38 43 44 46 45 38 39 57 66 61 46 41 41 58 76 66 74 68 50 71 51 75 94 91 98 104 96 88 65
155 158 155 152 147 149 141 133 123 113 110 105 118 116 110 107 105 105 116 114 98 90 80 78 69 64 63 62 61 59 58 57 48 42 35 33 26 22 23 36 46 53 53 43 38 33 30 34 28 18 18 22 28 32 30 28 30 23 23 25 41 40 42 39 38 55 60 57 52 54 37 45 29 73 74 60 67 49 59 72 68 73 76 74 84 91 70
82 69 72 97 98 92 105 121 127 121 118 112 105 97 102 107 106 111 105 87 85 93 90 77 69 66 66 65 61 59 59 60 57 51 44 36 28 22 30 40 40 44 46 42 36 30 21 25 33 36 32 32 22 20 22 33 37 40 23 26 31 31 32 38 47 47 62 73 75 67 63 39 56 67 69 79 68 66 71 69 79 94 99 92 95 88 68
63 67 70 78 99 108 106 104 107 110 112 109 107 104 99 98 94 85 83 85 94 85 79 77 75 71 66 62 60 57 60 57 57 52 47 39 27 30 43 41 39 39 41 40 28 21 16 20 30 38 45 40 32 22 32 32 16 31 64 67 51 38 22 28 41 53 41 45 46 57 60 65 68 57 71 70 75 82 88 87 86 90 92 105 115 108 96
50 54 52 59 59 66 80 80 81 88 91 96 96 91 81 74 74 76 78 76 77 80 83 85 80 77 75 74 74 70 61 59 56 55 51 44 42 47 45 44 39 35 34 35 6 359 8 22 27 28 25 26 32 30 33 39 29 13 30 46 50 57 50 38 23 29 47 49 77 68 73 64 40 60 62 51 68 81 89 100 100 98 99 109 113 120 113
52 55 59 61 61 65 63 61 57 66 75 72 67 73 79 78 72 70 67 66 74 79 85 85 91 93 85 74 65 60 56 52 54 55 52 44 42 51 43 39 32 26 32 18 344 357 7 17 23 29 22 23 19 18 40 52 52 38 27 39 46 40 41 34 30 40 39 49 42 53 76 65 82 76 56 56 55 67 83 90 91 116 121 121 118 118 116
47 51 50 52 59 62 64 60 59 60 66 78 80 79 79 83 83 80 75 71 68 80 83 82 79 73 67 67 62 59 56 52 52 55 57 54 53 58 55 42 32 25 22 6 356 11 16 21 21 22 25 19 15 12 25 42 51 50 42 43 55 66 54 52 54 39 55 56 56 37 24 68 85 71 66 68 69 79 89 98 102 107 116 127 134 142 138
50 44 46 49 55 59 65 64 64 67 67 64 72 77 80 81 80 81 78 71 60 65 68 68 65 64 61 60 59 58 51 52 53 55 55 56 57 60 56 39 24 13 18 22 19 14 19 24 27 22 16 8 15 23 24 30 35 34 37 35 25 32 44 45 29 47 33 27 50 52 38 54 70 84 97 92 77 64 40 65 103 119 113 113 113 120 127
39 35 38 48 54 59 68 66 62 55 54 57 57 56 60 71 74 71 69 70 64 60 60 61 66 65 63 65 66 62 58 55 54 50 47 52 48 43 47 39 9 17 25 29 27 25 24 26 26 28 22 20 3 26 27 22 22 19 28 34 31 29 40 35 44 40 28 37 40 50 57 24 13 91 99 94 94 88 78 64 21 17 122 127 129 137 137
51 43 44 48 55 57 54 68 67 61 50 49 63 64 63 65 68 71 69 68 64 61 64 66 72 75 74 70 67 61 57 56 58 54 49 48 42 39 45 35 12 28 38 36 28 28 23 23 25 32 35 32 32 32 33 22 20 11 14 24 30 27 19 32 40 26 41 47 51 86 106 100 50 346 64 118 109 101 110 115 114 160 175 145 144 147 142
48 53 55 52 39 59 70 68 73 72 63 48 48 51 55 60 66 66 64 62 63 63 61 57 58 60 63 63 62 57 50 47 53 57 58 51 45 39 43 31 22 32 39 40 37 30 27 18 28 34 46 48 41 38 35 32 23 21 15 14 20 15 13 12 7 9 7 6 62 60 36 33 20 36 5 329 109 123 117 130 138 158 155 126 123 127 133
50 53 51 55 55 49 54 59 60 57 56 48 43 49 52 52 50 58 63 62 59 58 61 60 58 59 59 61 62 56 44 39 38 45 57 53 45 35 28 37 34 37 40 39 34 35 29 23 26 33 37 43 44 40 34 23 26 26 25 27 21 23 19 8 358 354 357 2 357 29 72 78 73 16 310 35 68 71 84 97 102 115 130 119 118 112 122
46 46 49 48 44 46 49 52 57 63 66 60 51 44 46 54 52 49 57 61 59 56 55 58 59 59 63 63 67 67 62 53 45 40 50 47 45 32 18 38 42 40 41 44 40 35 35 34 35 38 39 40 43 45 37 31 26 27 33 26 25 27 23 20 13 9 7 7 19 16 13 23 31 54 44 11 9 26 40 61 75 107 133 123 131 142 151
44 41 42 44 39 36 45 57 61 61 60 59 54 46 45 54 59 54 51 58 60 56 56 57 55 49 52 66 73 71 67 58 47 40 42 44 51 36 34 47 45 46 45 46 38 37 34 38 39 40 42 43 44 43 40 35 30 33 33 31 29 25 23 19 17 16 13 10 10 22 29 23 20 13 10 21 32 13 357 4 64 99 120 128 158 157 162
44 42 38 39 37 32 36 46 50 50 49 50 50 47 40 49 57 57 55 57 61 59 56 55 55 51 48 47 47 55 66 69 55 36 31 29 37 44 42 44 44 45 46 44 43 40 38 38 41 42 43 46 46 43 39 37 35 29 31 33 29 27 29 28 28 21 16 15 16 19 23 24 22 22 23 20 29 35 22 10 358 352 353 357 24 119 146
45 45 38 37 37 34 38 41 45 46 43 41 46 52 51 56 58 56 54 57 59 59 56 52 50 47 45 46 46 45 35 62 73 41 18 30 35 36 39 43 43 43 44 41 41 38 38 40 42 45 46 46 44 41 39 39 35 33 36 33 33 34 34 35 33 32 28 24 23 23 20 21 21 19 19 24 23 21 19 23 22 18 16 17 12 2 356
42 45 44 42 39 37 39 41 40 40 35 32 44 47 49 60 57 50 46 48 53 54 52 47 45 41 38 40 43 42 43 42 63 66 28 38 39 41 38 41 41 41 40 37 35 33 39 39 41 43 44 47 46 42 41 36 39 41 37 37 36 34 36 35 35 36 39 33 30 32 29 29 26 24 20 24 24 19 20 26 25 21 14 13 17 16 17
39 39 39 38 39 36 34 41 40 36 33 39 44 43 46 57 57 42 34 40 55 60 56 49 43 37 36 36 35 37 34 43 47 46 42 41 46 45 37 38 42 44 42 38 31 29 32 38 39 40 42 39 41 45 44 43 44 41 40 38 38 38 38 40 40 40 40 33 30 31 31 35 35 35 35 33 30 24 24 24 27 26 28 30 21 15 13
40 43 43 44 47 47 44 45 42 42 46 45 46 46 48 55 61 55 47 39 41 50 48 51 44 35 33 33 35 35 38 36 43 47 45 39 38 46 46 42 42 43 40 38 31 25 16 24 31 35 33 30 32 34 39 43 40 45 45 41 39 37 38 37 35 36 36 39 36 34 33 27 27 30 33 34 32 31 30 29 27 24 23 19 20 18 19
45 40 38 42 48 48 47 43 41 47 50 52 51 49 52 53 57 54 48 44 47 49 43 50 49 32 33 34 36 35 35 44 43 40 45 45 41 33 38 42 39 36 36 35 31 31 23 15 23 29 30 28 21 26 30 33 30 31 33 34 38 40 42 40 38 39 39 35 35 38 36 32 27 30 29 26 26 28 30 33 35 33 30 27 23 22 20